Probability
23 42 39 45 39 35 29 23 19 10 6 3 3 3 3 0 0 0 0 0 0 0 0 0 0 0 0 0 0 0 0 0 0 0 0 0 0 0 0 0 0 0 0
23 32 35 35 32 29 23 19 13 6 3 3 3 0 0 0 0 0 0 0 0 0 0 0 0 0 0 0 0 0 0 0 0 0 0 0 0 0 0 0 0 0 0
23 29 32 29 29 29 26 19 13 6 3 3 0 0 0 0 0 0 0 0 0 0 0 0 0 0 0 0 0 0 0 0 0 0 0 0 0 0 0 0 0 0 0
23 29 32 26 26 23 19 10 10 6 3 3 0 0 0 0 0 0 0 0 0 0 0 0 0 0 0 0 0 0 0 0 0 0 0 0 0 0 0 0 0 0 0
23 23 32 29 26 19 19 13 10 6 3 0 0 0 0 0 0 0 0 0 0 0 0 0 0 0 0 0 0 0 0 0 0 0 0 0 0 0 0 0 0 0 0
26 26 23 26 23 19 19 13 13 10 0 0 0 0 0 0 0 0 0 0 0 0 0 0 0 0 0 0 0 0 0 0 0 0 0 0 0 0 0 0 0 0 0
23 26 26 26 19 16 19 13 13 6 0 0 0 0 0 0 0 0 0 0 0 0 0 0 0 0 0 0 0 0 0 0 0 0 0 0 0 0 0 0 0 0 0
13 16 23 19 16 16 16 16 13 10 0 0 0 0 0 0 0 0 0 0 0 0 0 0 0 0 0 0 0 0 0 0 0 0 0 0 0 0 0 0 0 0 0
13 16 16 16 16 10 13 13 16 6 3 0 0 0 0 0 0 0 0 0 0 0 0 0 0 0 0 0 0 0 0 0 0 0 0 0 0 0 0 0 0 0 0
10 13 16 16 13 10 10 10 13 13 6 3 3 0 0 0 0 0 0 0 0 0 0 0 0 0 0 0 0 0 0 0 0 0 0 0 0 0 0 0 0 0 0
6 10 10 13 10 10 10 13 10 10 6 6 3 3 0 0 0 0 0 0 0 0 0 0 0 0 0 0 0 0 0 0 0 0 0 0 0 0 0 0 0 0 0
6 6 6 3 10 13 10 10 10 10 6 6 3 3 3 3 3 0 0 0 0 0 0 0 0 0 0 0 0 0 0 0 0 0 0 0 0 0 0 0 0 0 0
6 6 10 3 6 6 10 10 10 10 6 3 3 3 6 3 3 3 0 0 0 0 0 0 0 0 0 0 0 0 0 0 0 0 0 0 0 0 0 0 0 0 0
10 10 10 10 0 0 3 3 6 3 3 3 3 3 6 3 3 0 0 0 0 0 0 0 0 0 0 0 0 0 0 0 0 0 0 0 0 0 0 0 0 0 0
3 6 6 10 3 3 3 3 3 3 3 3 3 6 6 0 0 0 0 0 0 0 0 0 0 0 0 0 0 0 0 0 0 0 0 0 0 0 0 0 0 0 0
0 3 3 3 0 0 0 0 0 0 0 3 3 3 0 0 0 0 0 0 0 0 0 0 0 0 0 0 0 0 0 0 0 0 0 0 0 0 0 0 0 0 0
0 0 0 0 0 0 0 0 0 0 0 0 0 0 0 0 0 0 0 0 0 0 0 0 0 0 0 0 0 0 0 0 0 0 0 0 0 0 0 0 0 0 0
0 0 0 0 0 0 0 0 0 0 0 0 0 0 0 0 0 0 0 0 0 0 0 0 0 0 0 0 0 0 0 0 0 0 0 0 0 0 0 0 0 0 0
0 0 0 0 0 0 0 0 0 0 0 0 0 0 0 0 0 0 0 0 0 0 0 0 0 0 0 0 0 0 0 0 0 0 0 0 0 0 0 0 0 0 0
0 0 0 0 0 0 0 0 0 0 0 0 0 0 0 0 0 0 0 0 0 0 0 0 0 0 0 0 0 0 0 0 0 0 0 0 0 0 0 0 0 0 0
0 0 0 0 0 0 0 0 0 0 0 0 0 0 0 0 0 0 0 0 0 0 0 0 0 0 0 0 0 0 0 0 0 0 0 0 0 0 0 0 0 0 0
0 0 0 0 0 0 0 0 0 0 0 0 0 0 0 0 0 0 0 0 0 0 0 0 0 0 0 0 0 0 0 0 0 0 0 0 0 0 0 0 0 0 0
0 0 0 0 0 0 0 0 0 0 0 0 0 0 0 0 0 0 0 0 0 0 0 0 0 0 0 0 0 0 0 0 0 0 0 0 0 0 0 0 0 0 0
0 0 0 0 0 0 0 0 0 0 0 0 0 0 0 0 0 0 0 0 0 0 0 0 0 0 0 0 0 0 0 0 0 0 0 0 0 0 0 0 0 0 0
0 0 0 0 0 0 0 0 0 0 0 0 0 0 0 0 0 0 0 0 0 0 0 0 0 0 0 0 0 0 0 0 0 0 0 0 0 0 0 0 0 0 0
0 0 0 0 0 0 0 0 0 0 0 0 0 0 0 0 0 0 0 0 0 0 0 0 0 0 0 0 0 0 0 0 0 0 0 0 0 0 0 0 0 0 0
Height
5837 5840 5842 5846 5849 5852 5855 5858 5860 5862 5864 5865 5866 5866 5866 5866 5866 5866 5865 5865 5864 5863 5863 5862 5861 5860 5858 5857 5857 5856 5855 5854 5854 5853 5852 5852 5852 5852 5852 5852 5853 5853 5854
5837 5840 5843 5846 5849 5851 5854 5857 5859 5861 5862 5863 5864 5865 5865 5865 5865 5864 5864 5863 5862 5862 5861 5860 5859 5858 5857 5856 5855 5854 5853 5852 5851 5850 5849 5849 5849 5848 5848 5848 5848 5849 5849
5839 5841 5843 5846 5848 5851 5853 5856 5858 5859 5861 5862 5863 5863 5863 5864 5864 5863 5863 5862 5861 5861 5860 5859 5858 5856 5855 5854 5853 5852 5851 5850 5848 5847 5847 5846 5845 5845 5845 5844 5844 5844 5844
5840 5841 5843 5846 5848 5851 5853 5855 5856 5858 5859 5860 5861 5862 5862 5862 5862 5862 5861 5861 5860 5859 5858 5857 5856 5855 5854 5852 5851 5850 5848 5847 5846 5845 5843 5843 5842 5841 5841 5840 5840 5839 5839
5841 5842 5844 5846 5848 5850 5852 5854 5855 5856 5857 5859 5860 5860 5861 5861 5861 5861 5860 5859 5859 5858 5857 5855 5854 5853 5852 5850 5849 5847 5846 5844 5843 5841 5840 5838 5837 5836 5836 5835 5835 5835 5834
5843 5843 5844 5847 5848 5849 5851 5852 5854 5855 5856 5857 5858 5859 5859 5859 5859 5859 5858 5858 5857 5856 5855 5854 5852 5851 5849 5848 5846 5844 5842 5841 5839 5837 5836 5834 5833 5831 5830 5830 5829 5829 5828
5844 5844 5845 5846 5847 5849 5850 5851 5853 5854 5855 5855 5856 5857 5857 5857 5857 5857 5856 5856 5855 5854 5853 5851 5850 5848 5846 5845 5843 5841 5839 5837 5835 5833 5831 5829 5828 5826 5825 5824 5822 5822 5821
5843 5844 5844 5845 5846 5848 5849 5850 5851 5852 5853 5854 5854 5855 5855 5855 5855 5855 5854 5853 5853 5851 5850 5849 5847 5845 5843 5841 5839 5837 5835 5833 5831 5828 5826 5824 5822 5820 5819 5817 5816 5815 5813
5843 5843 5844 5844 5845 5846 5846 5847 5849 5850 5851 5851 5852 5852 5852 5853 5852 5852 5851 5850 5849 5848 5847 5845 5844 5842 5840 5838 5835 5833 5831 5828 5826 5823 5821 5819 5816 5814 5812 5811 5809 5808 5806
5842 5842 5842 5843 5843 5844 5845 5846 5847 5847 5848 5849 5849 5849 5849 5849 5849 5848 5848 5847 5846 5845 5843 5842 5840 5838 5836 5833 5831 5828 5826 5823 5821 5818 5815 5812 5810 5808 5805 5803 5802 5800 5798
5840 5840 5840 5840 5841 5842 5842 5843 5844 5845 5845 5845 5846 5846 5846 5846 5845 5845 5844 5843 5842 5840 5839 5837 5835 5833 5831 5828 5826 5823 5820 5818 5815 5812 5809 5806 5803 5800 5798 5796 5794 5792 5790
5838 5837 5837 5838 5838 5839 5839 5840 5841 5841 5842 5842 5842 5842 5842 5842 5841 5840 5839 5838 5837 5835 5834 5832 5830 5828 5825 5823 5820 5817 5814 5812 5809 5806 5802 5799 5796 5793 5790 5788 5785 5783 5781
5835 5835 5835 5835 5835 5836 5836 5836 5837 5837 5837 5838 5838 5838 5837 5837 5836 5835 5834 5833 5831 5830 5828 5826 5824 5822 5819 5817 5814 5811 5808 5805 5802 5799 5796 5792 5789 5786 5782 5779 5776 5774 5771
5832 5832 5832 5832 5832 5832 5832 5833 5833 5833 5833 5833 5833 5833 5832 5831 5830 5829 5828 5827 5825 5824 5822 5820 5818 5816 5813 5810 5807 5804 5801 5798 5795 5791 5788 5785 5781 5778 5774 5771 5767 5764 5762
5829 5829 5828 5828 5828 5828 5828 5828 5828 5828 5828 5828 5828 5827 5827 5826 5825 5823 5822 5821 5819 5818 5816 5814 5811 5809 5806 5803 5800 5797 5793 5790 5787 5783 5780 5777 5773 5769 5766 5762 5758 5755 5752
5826 5825 5825 5824 5824 5824 5823 5823 5823 5823 5823 5822 5822 5821 5821 5819 5818 5817 5815 5814 5812 5811 5809 5807 5804 5801 5798 5795 5792 5788 5785 5782 5778 5775 5772 5768 5764 5760 5757 5753 5749 5746 5742
5821 5821 5820 5819 5819 5819 5818 5818 5818 5817 5817 5816 5816 5815 5814 5813 5811 5810 5808 5807 5805 5803 5801 5799 5796 5793 5790 5787 5783 5780 5776 5773 5770 5766 5763 5759 5755 5751 5747 5743 5740 5736 5732
5815 5815 5814 5814 5813 5813 5812 5812 5811 5811 5810 5809 5809 5808 5806 5805 5804 5802 5801 5799 5797 5795 5792 5790 5787 5784 5781 5777 5774 5771 5767 5764 5760 5757 5753 5749 5745 5741 5737 5733 5729 5725 5722
5808 5808 5808 5807 5807 5806 5806 5805 5805 5804 5803 5802 5801 5800 5799 5797 5796 5794 5792 5790 5788 5786 5783 5780 5778 5775 5771 5768 5765 5761 5757 5754 5750 5746 5742 5739 5735 5730 5726 5723 5719 5715 5711
5800 5800 5800 5800 5800 5800 5799 5798 5797 5797 5796 5794 5793 5792 5791 5789 5787 5785 5783 5781 5778 5776 5773 5771 5768 5765 5761 5758 5754 5750 5747 5743 5740 5736 5732 5728 5724 5720 5715 5711 5708 5705 5701
5793 5792 5792 5793 5793 5792 5792 5791 5790 5789 5787 5786 5785 5784 5782 5780 5778 5776 5774 5771 5768 5766 5763 5760 5757 5754 5751 5747 5743 5739 5735 5732 5728 5724 5720 5716 5712 5708 5704 5700 5697 5693 5690
5785 5785 5785 5785 5785 5784 5783 5783 5782 5780 5779 5778 5777 5775 5773 5771 5768 5766 5763 5760 5758 5755 5752 5749 5746 5742 5739 5735 5731 5727 5723 5719 5716 5712 5708 5704 5700 5696 5692 5688 5685 5682 5678
5777 5777 5777 5777 5776 5776 5775 5774 5773 5772 5770 5769 5767 5765 5763 5760 5758 5755 5752 5749 5746 5743 5740 5737 5734 5730 5726 5722 5718 5714 5710 5706 5702 5699 5696 5691 5687 5683 5680 5676 5673 5670 5666
5769 5769 5769 5768 5767 5767 5766 5765 5764 5762 5761 5759 5757 5754 5752 5749 5746 5743 5740 5737 5733 5730 5726 5723 5720 5717 5713 5709 5705 5700 5696 5692 5688 5685 5682 5678 5674 5670 5667 5664 5660 5657 5654
5762 5761 5761 5760 5759 5758 5756 5755 5754 5752 5750 5747 5745 5743 5740 5737 5734 5731 5727 5724 5720 5716 5713 5709 5705 5702 5699 5695 5690 5686 5682 5678 5674 5670 5667 5663 5660 5657 5654 5651 5648 5645 5642
5754 5753 5752 5751 5750 5748 5747 5745 5743 5741 5739 5736 5733 5731 5727 5724 5721 5718 5714 5710 5706 5702 5697 5693 5689 5686 5682 5679 5674 5670 5666 5662 5658 5655 5652 5649 5645 5642 5640 5637 5634 5632 5629
Wind_Speed
11 13 13 13 13 12 11 10 8 7 6 5 5 5 5 6 6 7 7 8 8 9 10 10 10 11 11 11 11 11 11 12 12 13 13 13 13 14 14 15 16 17 18
12 14 13 12 11 11 10 9 8 7 6 5 5 5 5 5 6 6 7 7 8 9 9 9 10 10 10 11 11 11 11 12 13 13 13 13 13 13 14 15 16 17 18
11 12 11 11 11 10 9 9 8 7 6 5 5 4 4 5 5 5 6 7 8 8 9 9 10 10 10 11 11 12 12 13 13 14 14 14 14 14 14 15 16 17 18
9 10 10 10 10 10 9 9 8 7 6 6 5 4 4 4 4 5 5 6 7 8 8 9 10 10 10 11 11 12 13 14 15 15 16 16 16 16 16 16 17 18 19
8 9 9 10 10 10 9 8 8 7 6 7 6 4 4 4 4 4 5 6 7 8 8 9 10 10 11 12 13 14 15 16 16 16 17 18 18 19 19 19 19 20 20
6 8 9 9 9 9 9 8 7 7 7 6 6 5 5 4 4 4 5 6 7 8 9 10 11 11 12 13 14 15 17 18 18 18 18 19 19 20 20 21 21 22 22
5 7 8 9 9 9 9 8 8 8 7 6 6 6 5 5 5 5 6 6 7 8 10 10 12 13 14 15 15 17 18 18 19 19 20 20 20 21 21 22 23 24 24
5 6 8 9 9 9 9 9 8 8 7 7 7 7 6 6 6 6 7 7 8 9 11 11 13 14 15 16 17 18 19 20 20 21 21 22 22 22 22 23 24 25 26
6 7 8 9 10 9 9 10 9 9 9 8 8 7 7 7 7 7 8 9 10 11 12 14 15 16 17 18 18 20 21 21 22 22 23 23 24 24 24 24 25 26 27
7 8 8 9 10 10 10 10 11 11 10 10 9 9 8 8 9 9 10 11 12 14 15 16 17 18 19 20 21 22 22 23 23 24 24 25 25 25 25 25 26 27 27
8 9 9 10 11 11 12 12 12 12 12 11 11 11 11 11 11 12 12 13 14 16 17 18 20 21 22 22 23 23 24 25 25 26 27 27 27 27 27 27 27 28 28
10 11 11 11 12 13 13 13 13 13 13 13 13 13 13 13 14 14 15 16 17 18 20 21 22 23 24 24 25 26 26 27 27 28 28 28 28 29 29 29 29 30 30
13 13 13 13 14 15 15 15 16 16 15 15 15 16 16 16 16 17 18 19 19 20 22 23 24 25 26 27 27 28 28 29 29 30 30 30 30 30 31 31 31 31 31
14 14 14 15 15 16 17 17 17 17 17 17 17 18 19 19 19 20 21 22 22 23 24 26 26 27 28 29 30 30 30 31 31 31 31 31 32 32 33 33 33 33 33
15 15 15 15 16 17 17 18 18 18 18 19 19 20 20 20 21 22 23 24 25 26 27 28 28 29 30 31 32 32 32 33 33 33 33 34 34 34 34 34 34 34 34
16 17 17 17 17 17 18 18 18 19 20 20 21 21 22 22 23 24 25 27 28 29 29 30 31 32 32 33 33 33 34 34 34 34 35 35 36 36 35 35 35 35 35
17 17 18 18 18 19 19 19 19 20 21 21 22 23 24 24 25 26 28 29 30 31 32 33 33 34 34 34 34 34 35 35 36 36 36 37 37 37 37 37 37 36 36
19 20 20 21 21 20 20 20 20 21 22 23 24 25 26 27 28 29 30 31 33 33 34 35 36 36 36 36 36 37 37 37 38 38 38 38 39 39 39 38 37 37 37
22 22 22 22 21 22 22 22 22 23 24 25 26 27 28 29 30 31 33 34 35 36 36 37 38 38 38 39 39 39 39 39 40 40 40 40 40 40 40 39 38 38 38
23 24 24 24 24 24 24 24 24 25 26 27 28 29 30 31 32 34 35 37 38 38 39 39 40 40 40 41 41 41 41 41 41 42 42 42 41 41 41 40 39 38 38
25 26 27 27 26 26 26 26 26 27 29 29 30 31 32 34 35 37 38 39 40 41 41 41 42 42 42 42 43 43 43 44 43 43 44 44 43 42 42 41 40 39 38
26 26 27 27 27 28 28 28 29 29 30 31 32 34 35 37 38 39 41 42 42 43 43 44 44 44 45 45 45 45 45 45 46 45 45 45 45 44 43 42 41 40 39
26 26 27 26 27 29 29 30 31 32 33 34 34 36 38 39 40 41 43 44 45 45 46 46 47 47 47 47 47 47 48 48 48 47 47 47 46 45 44 43 42 41 40
26 26 26 27 29 30 30 32 33 35 35 36 37 39 40 41 43 44 45 46 47 48 49 49 50 50 49 49 49 50 50 50 50 49 49 48 47 46 45 43 42 42 40
25 27 27 28 29 30 32 33 34 36 38 39 40 41 43 44 45 47 48 49 50 51 52 52 53 51 50 50 51 52 52 53 52 51 50 50 48 47 45 44 43 42 41
25 26 27 29 31 32 34 35 37 38 40 41 42 44 45 46 48 49 50 51 52 53 54 54 54 54 54 53 54 54 54 54 53 52 51 50 48 47 45 44 43 42 41
Wind_Direction
192 186 187 185 191 194 194 191 188 196 209 221 239 262 280 294 304 311 314 317 319 319 320 319 318 317 315 314 313 312 310 309 307 305 301 296 291 285 278 272 267 264 263
181 182 184 186 185 187 188 185 185 194 207 219 240 255 278 294 304 312 318 323 325 324 323 323 324 323 322 321 320 318 316 314 311 309 306 302 296 290 284 278 273 268 265
174 176 180 181 179 183 186 187 190 198 209 220 236 249 268 287 302 314 320 323 326 327 330 333 333 330 327 325 325 323 321 318 316 313 310 305 299 294 289 283 277 272 268
168 172 173 178 182 185 189 193 197 204 213 225 234 243 260 278 296 308 316 322 327 331 334 337 339 337 335 332 329 327 325 322 317 313 309 305 300 296 292 288 283 278 272
168 170 175 180 183 186 192 198 200 205 215 223 229 239 251 266 282 299 314 323 327 329 332 336 337 335 333 332 329 326 324 321 318 313 309 304 300 296 292 289 284 280 276
164 170 177 183 189 191 195 200 205 213 219 223 228 236 245 260 280 299 311 318 324 328 330 332 334 332 329 327 327 326 324 322 319 315 311 306 302 298 294 291 286 282 278
178 179 184 190 197 199 201 206 211 216 219 221 225 234 248 263 281 296 303 309 317 324 327 329 330 329 327 325 323 324 323 322 320 316 312 308 304 300 297 293 289 285 281
210 201 201 202 204 206 208 209 215 221 224 226 232 241 252 265 279 290 298 304 312 319 323 325 326 326 325 324 323 323 323 320 319 317 314 310 306 302 299 295 291 288 284
226 218 216 215 216 217 219 220 223 227 228 232 237 244 256 270 281 290 295 301 306 313 317 319 320 321 321 321 320 320 320 319 318 317 314 311 307 304 300 296 293 290 287
237 229 224 224 224 224 228 227 229 231 234 239 244 251 260 271 280 288 293 297 303 308 311 312 314 315 317 317 316 316 316 317 318 317 316 313 310 306 303 299 295 293 289
251 243 237 234 232 230 231 233 234 236 240 244 250 255 263 272 280 287 292 296 300 303 305 307 309 311 313 314 314 314 314 315 316 316 315 313 311 308 305 302 298 296 292
259 252 247 242 239 237 236 238 241 243 248 251 255 261 266 272 278 284 289 293 297 301 302 304 306 308 310 310 312 312 312 312 313 314 314 313 311 309 307 304 301 299 295
261 256 248 243 241 241 241 242 245 248 250 255 260 265 269 272 277 283 288 291 295 299 300 302 304 306 306 308 309 310 310 311 311 312 312 312 311 309 308 305 303 301 298
262 257 250 246 244 244 246 246 249 252 256 260 263 267 271 274 279 283 288 291 295 298 299 301 303 305 306 307 307 308 308 309 309 309 310 311 311 310 309 307 304 302 300
266 258 254 255 252 251 250 250 252 255 259 263 266 269 273 277 280 284 288 291 294 296 298 300 302 303 304 305 306 306 307 308 308 308 308 309 309 308 308 306 304 302 301
266 261 258 257 256 256 255 256 258 260 263 266 269 272 276 279 282 285 289 291 294 296 298 299 301 302 303 304 304 305 306 306 307 307 308 308 308 307 307 306 303 301 300
263 260 257 256 257 258 259 260 262 265 267 270 273 276 279 282 285 287 290 292 293 295 297 298 300 301 302 303 303 304 304 305 305 306 307 307 307 307 306 305 303 301 299
263 261 259 257 256 259 261 263 266 269 272 274 277 279 282 284 287 288 290 291 293 294 295 297 298 300 301 302 302 303 303 303 304 305 306 306 306 306 305 304 302 301 300
264 262 260 259 260 261 263 265 268 271 274 276 278 281 283 285 287 288 290 291 292 294 295 297 298 299 299 300 301 302 301 303 303 304 305 306 306 306 304 303 301 300 299
263 261 260 260 261 262 265 268 270 273 275 277 279 281 283 285 286 288 289 291 292 293 295 296 297 297 298 299 299 300 300 301 302 302 304 304 305 304 302 302 301 299 298
261 261 258 259 261 264 267 269 271 273 275 278 281 283 284 285 286 287 289 290 291 292 294 295 295 296 297 297 298 298 298 299 300 301 302 302 303 303 301 300 299 297 296
259 260 258 259 262 266 269 271 273 276 278 280 281 282 283 285 286 287 289 290 291 292 293 294 294 295 296 296 297 297 297 297 299 299 299 300 301 301 299 298 297 295 295
258 259 262 264 266 270 272 273 275 277 278 280 282 283 284 286 287 288 289 290 291 291 292 292 293 294 294 295 295 295 295 296 297 297 297 298 298 298 297 296 294 293 293
261 263 265 268 271 273 274 274 275 278 279 280 282 284 285 285 286 287 288 289 290 291 292 292 292 292 293 293 292 292 294 294 295 295 295 295 296 295 295 294 292 292 291
265 266 267 269 272 275 277 278 279 281 282 284 285 286 286 287 288 289 289 290 290 291 291 291 291 291 292 292 291 291 292 292 292 293 294 294 294 293 292 291 290 290 289
268 270 272 274 276 278 280 281 283 283 284 285 286 286 287 287 288 288 289 289 290 290 290 290 290 290 291 291 290 290 290 290 291 291 292 292 291 290 290 289 288 288 287